Location: Newark
(35.6799°N, 139.7636°E)
Time: 21:19:03
(UTC+00:00)

Transit 2A - Pass Details

Date: 09 December 2019
Orbit: 601 x 958 km, 66.7° (Epoch: 28 January)

Event Time Altitude Azimuth Distance (km) Brightness Sun altitude
Rises 06:03:50 0° 348° (NNW) 2,872 8.7 13.2°
Reaches altitude 10° 06:06:34 10° 6° (N) 1,990 7.8 12.8°
Maximum altitude 06:09:54 20° 54° (NE) 1,471 7.0 12.2°
Drops below altitude 10° 06:13:22 10° 102° (ESE) 2,090 8.0 11.7°
Sets 06:16:18 0° 119° (ESE) 3,064 8.9 11.2°
